Wind_Speed
18 18 18 18 18 18 18 18 18 17 17 17 17 17 16 16 16 16 16 16 15 14 13 13 13 12 12 13 14 14 14 14 14 14 16 16 15 13 14 14 15 16 15 15 17 19 20 22 22 22 21 19 18 17 16 16 15 14 11 6 3 4 4 3 3 7 6 8 9 6 6 5 6 6 5 5 3 4 4 3 3 3 3 3 3 2 3 5
17 17 17 17 17 17 18 18 17 17 17 17 17 17 17 16 16 16 16 17 16 16 16 15 15 14 13 12 13 14 14 14 14 15 17 18 17 15 15 15 16 17 16 16 18 21 22 23 24 23 23 21 20 19 18 17 16 15 12 8 5 5 4 3 5 10 6 7 10 5 5 5 4 4 2 4 4 3 4 3 3 3 3 3 2 1 1 4
16 15 15 15 16 16 16 16 16 16 16 17 17 17 17 17 17 16 17 17 17 17 17 17 17 16 15 14 13 13 14 14 13 15 18 18 18 18 17 17 17 17 17 17 18 20 23 24 24 25 24 23 22 21 20 19 17 15 13 11 9 5 4 6 6 11 7 6 8 5 5 6 5 3 1 2 2 2 3 3 4 4 3 3 2 1 1 3
15 15 15 15 15 15 15 15 15 15 15 15 15 16 16 16 16 16 16 17 17 17 17 18 18 18 18 17 15 14 15 13 13 16 18 18 19 19 19 18 18 18 17 17 17 18 21 24 24 24 24 23 22 22 21 20 18 16 14 14 11 7 6 7 6 9 6 4 7 7 8 9 6 3 3 3 2 2 3 3 4 4 3 4 3 1 2 2
15 15 15 15 15 15 15 15 15 14 14 14 14 14 15 15 15 15 16 16 17 17 17 18 18 19 18 19 18 17 16 12 14 17 16 19 20 20 20 20 19 19 18 17 17 17 19 22 23 24 24 24 23 22 21 21 20 17 16 15 14 10 9 7 3 4 5 4 6 7 9 9 6 4 5 5 3 4 4 4 4 4 4 4 5 4 2 2
15 15 15 15 15 15 15 15 15 15 15 14 14 14 14 14 14 14 15 15 16 16 17 18 18 19 18 19 19 19 17 14 17 17 15 19 20 20 21 22 22 21 20 18 17 16 17 19 22 23 24 24 24 23 22 23 22 19 17 17 17 14 10 6 3 5 7 3 4 8 9 7 5 6 7 5 4 5 5 5 5 4 4 4 5 6 4 2
17 17 17 17 17 16 16 16 16 16 16 16 15 15 15 15 14 14 14 15 15 16 16 17 17 18 18 20 19 20 19 16 19 18 16 19 20 20 20 22 24 23 22 21 19 18 18 18 19 22 24 25 24 24 24 24 23 20 19 19 18 17 13 7 5 8 9 6 3 6 8 7 6 7 7 5 4 4 5 6 5 5 5 4 4 6 6 4
20 20 20 20 20 19 19 19 18 18 18 17 17 17 16 16 16 16 15 15 15 16 16 16 17 17 18 19 19 21 18 17 21 20 18 19 20 20 20 22 25 25 25 24 22 21 20 19 18 21 24 25 27 26 26 26 24 22 20 20 20 18 15 12 9 10 11 10 6 6 8 7 9 9 7 6 4 5 6 6 5 5 5 5 5 6 7 6
22 22 22 22 22 22 21 21 21 21 20 20 19 19 18 18 18 17 17 17 17 17 17 17 16 17 17 18 19 20 17 20 23 21 21 21 20 20 20 22 24 26 27 27 26 24 22 21 20 20 22 26 29 28 28 27 25 23 23 23 22 20 18 16 14 13 13 12 10 11 10 6 8 10 8 7 4 5 7 5 6 6 5 6 6 6 6 7
23 23 23 23 23 22 22 22 22 22 22 22 21 21 20 20 20 19 19 19 19 18 18 18 17 18 17 17 19 17 16 21 21 21 23 23 22 22 21 21 23 26 27 28 29 27 25 24 24 23 23 25 27 28 30 28 27 28 28 25 23 21 20 18 16 15 14 13 13 15 12 8 10 10 9 8 5 6 7 6 7 7 6 6 7 7 6 6
24 24 24 24 24 23 23 23 23 23 23 22 22 22 21 21 21 21 21 21 21 20 20 20 19 19 19 19 19 16 17 20 19 20 23 23 24 24 22 22 23 25 27 29 30 29 28 27 27 27 24 23 24 26 28 28 30 32 29 24 22 21 20 18 16 15 15 15 16 16 14 13 13 11 10 9 7 7 8 8 8 7 7 7 8 7 6 7
25 26 26 26 26 25 25 25 24 24 24 23 23 22 22 22 22 21 21 21 21 21 21 21 21 21 21 20 20 18 19 19 18 20 22 23 25 25 25 24 23 25 27 29 30 31 31 30 30 28 26 26 24 24 27 31 33 31 28 24 22 21 21 19 17 16 16 18 19 17 16 16 14 12 11 10 8 8 9 9 9 9 8 8 8 7 6 7
27 27 27 27 27 27 27 26 26 26 26 25 25 24 23 23 23 23 23 23 23 23 22 22 22 22 22 21 21 20 19 19 19 20 21 23 25 26 27 26 26 26 26 28 30 32 33 33 32 29 30 29 25 26 29 30 31 29 27 25 24 23 22 20 19 18 17 19 21 19 18 17 14 13 13 12 11 10 9 10 10 10 9 8 8 8 7 8
27 27 27 28 28 28 28 28 28 27 27 27 27 26 26 26 25 25 25 25 25 25 25 25 24 24 23 23 23 21 20 21 21 21 21 22 24 25 27 28 28 28 27 28 29 31 33 34 34 32 32 30 27 28 27 25 27 28 28 26 25 24 22 21 21 20 19 21 23 21 20 19 16 16 16 14 12 11 10 11 11 11 10 9 8 8 8 8
27 27 28 28 28 29 28 29 29 29 28 28 28 28 28 28 28 28 28 28 28 28 28 28 28 27 26 25 25 24 23 22 22 23 23 23 24 25 27 28 29 29 29 29 29 30 32 33 34 34 33 31 30 30 26 23 23 25 27 26 25 24 22 22 23 23 21 24 26 23 22 22 18 18 18 15 13 12 12 12 12 11 11 10 9 8 8 8
28 28 28 28 29 29 29 29 29 29 29 29 29 29 29 29 29 30 30 30 30 30 30 31 31 31 30 29 28 27 26 25 24 24 24 25 25 25 26 26 28 30 31 31 30 31 32 32 33 34 34 34 33 30 29 27 24 24 25 24 24 24 23 23 23 24 25 26 27 24 24 24 20 19 19 16 14 14 15 14 13 13 12 12 10 9 9 8
29 29 29 29 29 29 30 30 30 30 30 30 30 30 30 30 30 31 31 32 32 32 32 32 32 33 33 32 31 31 30 28 27 26 26 26 27 27 26 27 28 30 32 33 33 32 32 32 32 33 34 34 33 33 34 32 25 23 24 23 23 22 22 23 19 22 29 28 28 27 25 25 23 21 20 18 17 16 16 14 15 16 14 13 12 11 10 9
30 30 30 30 29 29 30 30 31 31 30 30 30 30 30 31 31 31 32 32 31 31 31 32 32 33 34 33 34 33 33 32 30 28 27 27 28 28 29 30 30 30 31 33 33 34 34 32 32 33 34 35 35 36 36 29 22 23 26 25 24 22 22 22 17 19 29 26 26 29 27 26 25 23 21 20 19 18 18 18 18 17 15 15 15 13 11 10
30 30 30 30 29 29 29 29 29 30 30 30 30 30 30 30 31 31 31 31 31 31 31 31 32 33 34 34 35 34 34 34 32 31 30 29 29 29 30 32 32 31 31 32 33 34 35 35 35 34 34 34 32 33 31 26 24 27 29 28 28 26 22 21 18 17 25 23 23 28 26 25 26 24 22 21 20 18 18 19 19 17 16 18 17 15 13 11
30 29 29 29 29 29 28 28 28 28 29 29 29 29 29 30 30 30 30 30 30 31 31 31 32 33 33 34 35 35 35 35 34 33 32 31 30 30 31 32 34 34 33 33 33 34 36 37 37 35 31 29 28 30 29 28 31 32 32 29 27 28 26 23 17 16 24 25 22 27 26 25 27 23 22 22 21 19 17 19 19 17 18 21 20 18 14 12
30 30 29 29 29 29 28 28 28 28 29 29 30 30 30 30 31 31 31 31 31 31 32 32 32 32 33 33 34 35 36 36 36 34 33 32 32 32 32 32 35 36 35 35 34 35 37 38 38 35 30 28 29 31 30 30 34 36 37 33 26 26 27 26 19 15 24 31 24 25 24 24 26 22 20 22 22 20 18 19 19 17 19 21 21 20 17 14
30 30 30 29 29 29 29 29 29 29 29 29 30 30 30 30 31 32 32 32 32 32 33 33 33 33 33 34 34 35 36 37 37 36 35 34 33 34 33 33 35 37 37 38 37 37 38 38 37 34 32 32 31 32 32 32 35 37 40 39 34 30 25 25 23 17 21 32 24 23 25 23 25 25 23 22 21 21 20 19 19 17 19 21 20 19 15 13
30 30 30 29 29 28 29 29 29 29 29 29 30 30 30 30 30 31 31 32 31 32 32 32 33 33 33 33 34 35 35 37 38 37 37 36 36 36 35 34 36 37 39 40 40 40 39 37 35 34 34 35 33 32 33 34 36 38 41 42 40 36 26 19 20 18 22 29 23 23 28 24 24 26 26 23 20 22 22 21 20 19 21 23 20 17 16 13
29 28 29 29 28 27 27 28 28 28 28 28 28 28 29 29 29 30 30 30 31 30 30 30 31 31 31 32 32 34 34 35 37 37 37 38 39 39 37 36 37 38 40 41 42 42 41 37 35 35 36 36 36 35 34 35 37 38 40 42 42 39 33 23 17 17 22 26 28 28 29 30 27 25 25 25 23 23 23 23 22 21 23 24 19 17 17 15
27 27 27 27 27 26 25 27 27 26 26 26 26 27 27 28 28 28 28 27 29 29 26 27 29 28 29 29 30 31 32 33 36 37 36 37 40 40 39 38 38 39 41 41 43 43 43 40 38 37 37 37 38 38 36 36 37 38 38 41 41 39 39 34 24 18 19 24 30 30 25 26 28 26 24 23 23 24 26 24 22 21 22 22 20 19 17 15
26 26 26 26 26 25 24 24 25 25 25 25 25 25 25 26 25 26 26 23 26 28 24 24 27 26 27 28 27 29 30 32 34 35 35 35 38 40 40 40 39 40 42 42 45 45 44 43 42 41 39 38 40 40 40 38 38 39 38 39 40 39 40 41 34 28 23 23 27 30 26 21 22 25 25 23 22 25 27 27 24 22 22 21 21 21 19 16
25 25 25 24 24 23 22 22 23 24 23 22 24 24 23 24 23 24 23 21 25 28 22 21 23 24 25 26 26 27 29 30 31 33 33 34 36 36 37 39 39 40 42 44 46 47 46 45 45 44 42 40 41 42 42 41 40 39 38 38 37 38 40 42 41 39 32 25 24 27 28 26 26 26 24 24 25 25 26 26 24 22 22 20 20 22 21 17
24 23 23 22 21 21 21 21 20 20 20 19 20 20 20 20 20 21 20 19 23 26 23 19 19 22 25 25 24 25 27 27 29 31 30 31 34 34 34 37 38 40 43 45 47 46 46 47 47 46 44 43 43 43 43 43 43 40 38 37 36 39 42 43 44 45 42 36 32 27 23 27 28 23 22 25 28 29 26 24 25 23 22 21 20 21 22 19
22 22 21 21 20 19 19 20 18 16 17 17 16 17 17 17 17 18 19 20 23 23 22 22 21 21 24 25 25 25 26 26 28 28 25 27 30 31 32 34 37 39 43 47 49 48 47 46 48 49 49 46 43 44 44 44 44 42 39 39 40 42 45 45 46 46 48 48 44 34 26 26 25 19 21 23 26 29 25 23 26 25 25 24 22 23 24 21
21 21 21 20 20 19 18 19 18 15 15 16 15 16 15 16 17 17 17 20 23 21 21 22 21 17 18 20 22 23 25 26 26 25 23 24 26 27 29 31 33 36 39 44 47 48 49 48 49 51 51 49 47 46 45 43 45 46 42 41 42 44 46 47 47 46 50 54 54 45 33 29 25 20 23 24 22 26 26 26 28 28 28 27 24 24 26 22
20 20 20 20 19 19 18 17 17 15 14 15 15 15 15 16 17 16 18 21 22 20 20 19 17 15 14 16 18 16 18 23 23 23 23 23 24 24 24 26 29 33 36 40 44 46 49 50 51 54 53 50 50 49 48 48 50 49 45 43 42 43 47 49 47 48 52 55 55 52 46 39 31 24 20 18 19 21 22 26 28 28 29 28 24 24 25 21
17 17 18 18 18 18 17 15 15 15 14 14 13 14 14 15 15 13 15 20 20 18 17 14 13 15 13 14 16 13 14 19 19 21 23 23 23 20 19 23 28 32 33 32 35 40 45 48 50 51 52 52 53 52 51 51 51 47 45 46 44 43 45 49 48 47 52 54 52 50 50 50 45 35 23 15 19 24 22 24 25 25 27 26 23 23 24 22
16 16 17 18 18 17 15 14 14 14 14 13 12 12 12 14 13 9 12 19 20 17 14 13 15 17 14 16 19 15 14 18 17 18 20 21 22 18 19 27 29 29 28 26 29 32 37 44 50 50 48 49 54 56 53 51 48 47 47 48 49 46 44 46 49 49 49 50 50 48 50 54 56 50 35 24 22 21 20 21 22 22 26 25 22 23 26 25
17 18 18 19 19 17 14 13 13 14 14 13 13 13 12 11 8 8 14 19 17 15 16 17 19 19 17 20 21 17 17 20 20 18 18 21 20 13 17 27 28 27 28 28 30 30 27 29 38 47 45 43 49 55 54 50 45 47 51 50 51 51 46 42 43 46 49 48 46 47 51 54 54 54 49 38 28 17 12 17 21 24 27 27 24 24 27 27
19 20 20 20 19 16 13 12 13 13 14 14 13 13 11 10 10 12 15 15 12 14 18 18 18 19 20 22 23 22 23 24 23 19 19 21 16 11 19 29 27 28 30 29 30 32 31 22 16 27 34 35 43 52 54 48 39 41 50 52 52 51 49 44 37 35 38 41 42 45 51 53 51 51 49 45 38 28 19 18 20 26 29 30 29 25 26 28
19 20 21 19 17 14 13 12 13 13 13 14 13 12 12 12 15 17 16 14 13 15 16 16 17 17 15 17 21 24 24 25 27 22 17 20 18 19 29 33 27 28 29 28 29 31 35 33 24 19 23 24 32 44 53 51 38 33 42 50 53 51 49 48 43 35 29 30 33 38 43 44 47 50 50 48 45 40 33 27 22 25 31 34 31 25 24 29
19 20 20 19 16 14 12 12 12 12 12 13 12 13 13 11 13 15 14 15 16 14 14 16 18 17 13 8 10 20 20 17 24 23 14 15 21 25 32 34 29 29 26 26 29 30 35 37 33 25 21 21 24 32 44 52 46 34 28 35 46 49 48 47 44 40 36 32 28 28 29 31 38 45 46 47 47 45 44 38 27 24 31 36 34 28 24 26
18 19 20 18 15 14 13 12 12 11 11 12 11 12 13 11 12 13 13 15 15 14 15 16 18 18 14 10 13 22 22 12 17 22 15 14 23 29 33 33 31 31 29 28 30 30 34 36 34 30 21 19 24 26 30 41 52 47 29 21 31 40 45 49 49 45 41 33 28 25 23 23 28 34 36 40 45 44 45 44 38 33 31 32 32 29 27 28
19 18 19 17 14 13 12 11 11 10 10 10 10 11 11 11 12 11 11 12 13 13 13 13 16 14 10 11 18 25 25 19 19 22 18 18 26 32 34 34 32 31 31 32 32 33 34 34 35 37 30 23 24 25 25 29 41 50 44 31 27 29 31 39 48 52 46 34 26 25 24 23 23 22 24 30 35 38 41 43 44 43 38 34 33 29 27 28
20 19 18 16 13 11 11 10 10 9 8 8 10 11 10 10 10 10 10 11 11 12 11 11 14 15 12 15 21 22 23 26 25 22 22 24 29 34 35 35 33 32 31 32 34 36 38 38 36 37 37 33 27 24 23 22 23 34 45 43 36 33 30 28 34 43 50 45 31 22 23 25 23 19 18 21 26 33 38 38 40 46 46 43 43 39 31 30
22 19 17 16 13 11 10 9 8 8 7 8 10 10 9 9 9 9 10 10 10 10 11 12 14 15 15 17 21 21 21 25 25 23 25 26 28 35 38 36 34 33 33 33 35 39 42 43 40 38 40 41 33 22 20 25 24 25 34 41 41 37 33 32 29 30 40 49 42 27 19 17 17 18 20 21 22 28 36 38 38 41 45 45 46 44 37 35
21 19 17 15 13 10 9 8 7 7 6 7 9 10 9 8 8 9 9 11 11 10 11 15 15 14 15 18 21 23 22 25 27 27 27 25 26 35 40 40 39 37 37 37 39 43 44 44 44 41 41 45 42 30 24 30 34 32 30 35 41 37 29 29 29 25 28 39 43 38 25 13 9 12 14 16 17 18 24 32 36 37 39 41 44 43 38 36
18 17 15 12 11 10 9 7 6 6 6 6 7 8 8 8 8 9 10 10 11 11 12 16 17 16 17 19 22 24 25 27 29 29 31 31 32 39 44 45 45 43 43 43 42 42 42 44 45 44 43 45 47 42 34 31 34 42 41 38 42 41 32 26 25 24 25 29 34 40 36 22 13 14 17 13 12 12 13 18 26 33 35 36 40 39 34 36
15 14 12 10 9 8 7 6 5 6 6 6 6 6 7 9 9 10 11 11 12 12 13 16 18 18 19 21 24 25 26 29 30 32 36 38 39 44 47 48 49 48 48 49 46 43 43 45 47 47 47 46 46 47 43 36 35 42 45 43 46 47 38 30 28 27 28 27 27 33 37 32 21 19 24 18 11 11 13 13 16 23 27 29 33 34 33 34
13 11 9 9 8 6 5 5 5 6 6 6 6 7 8 9 10 11 12 13 14 14 15 16 18 20 21 22 26 28 28 31 34 35 39 42 43 47 49 50 52 54 53 53 51 48 47 48 49 51 51 49 47 46 47 47 44 44 48 48 50 51 42 34 34 34 32 32 31 29 30 32 29 25 25 19 14 16 18 12 10 16 21 23 23 25 31 34
13 10 9 8 5 4 5 5 5 5 6 7 8 8 9 10 11 12 13 13 14 15 16 17 19 22 23 24 26 30 31 32 33 33 35 37 39 42 43 43 44 46 48 50 52 53 54 52 51 53 54 53 50 46 48 51 50 50 51 49 51 54 48 41 41 40 34 33 36 35 30 29 29 27 26 24 21 21 20 15 11 16 22 25 23 23 28 32
12 10 9 7 5 4 5 4 5 7 7 9 9 9 10 11 12 12 13 14 14 16 17 18 18 20 24 26 28 29 29 27 26 26 27 28 30 32 33 34 35 35 35 37 41 48 55 55 53 54 55 54 51 48 49 50 50 53 52 50 53 54 50 48 52 49 40 37 39 38 34 32 31 27 23 22 26 25 18 16 15 14 17 23 28 30 32 34
13 10 8 6 5 4 5 5 7 9 9 10 10 10 11 13 14 14 14 15 15 16 17 19 19 20 23 26 26 24 23 22 22 23 25 26 28 31 32 32 34 33 32 32 33 37 44 50 53 55 56 56 53 51 51 50 51 54 54 56 59 55 48 49 54 52 46 44 42 38 38 39 37 35 28 23 26 25 17 16 18 16 19 25 34 38 38 40
16 12 9 7 5 4 6 7 8 9 9 10 11 12 13 14 15 16 16 16 16 16 16 18 20 21 23 23 21 18 18 20 22 25 26 25 24 26 27 25 26 27 28 30 31 31 35 41 46 51 56 59 57 54 52 52 55 56 56 60 63 59 51 49 53 53 47 45 43 38 42 44 39 39 40 33 33 35 28 24 28 32 32 32 37 42 44 46
16 14 10 8 6 5 7 8 9 10 10 11 12 13 14 15 16 16 16 17 17 17 17 18 19 20 21 18 15 13 14 16 18 21 23 22 21 21 21 19 18 19 21 23 25 28 30 33 37 45 54 60 61 60 56 56 58 59 56 56 60 62 58 51 53 55 49 47 47 42 45 47 38 39 46 43 37 37 36 35 36 39 39 33 34 41 46 47
16 15 14 9 7 7 8 10 11 10 10 12 14 14 15 16 16 17 16 16 16 16 17 18 19 19 17 13 10 8 9 11 13 17 20 20 19 19 18 17 16 16 16 18 21 23 25 27 30 37 47 56 60 61 60 58 59 59 57 53 52 59 63 57 54 55 52 50 49 46 51 52 43 39 44 44 39 38 41 43 39 38 39 37 34 37 42 45
15 14 14 10 7 8 10 11 11 11 11 13 15 15 16 17 17 16 16 15 16 16 16 18 19 17 13 8 5 5 7 10 14 16 18 18 18 17 17 17 17 17 16 16 18 20 22 24 25 28 37 48 54 59 62 60 58 59 58 54 50 52 58 59 56 56 56 53 49 50 56 57 48 41 40 42 44 44 45 44 40 39 41 41 39 38 40 44
Wind_Direction
289 288 286 285 283 281 280 278 277 275 273 272 270 268 265 262 261 261 261 260 258 256 254 254 253 248 243 242 243 242 240 237 233 229 225 225 219 209 212 216 224 223 214 215 212 204 205 211 214 217 221 221 220 219 217 214 216 214 211 215 227 237 224 209 199 195 197 200 201 186 173 183 181 180 156 151 160 142 138 145 146 154 167 147 147 184 136 111
290 288 286 284 282 281 279 278 276 274 273 271 270 268 266 263 260 259 259 258 256 255 253 252 252 251 246 242 242 242 242 239 233 230 228 225 221 214 213 217 224 227 220 217 215 206 204 209 211 215 219 221 222 222 222 219 219 221 220 219 228 235 230 253 208 188 193 196 193 175 179 208 190 173 155 151 154 144 138 145 147 144 157 137 133 238 181 121
291 289 287 284 282 281 279 278 276 274 272 270 269 267 265 263 261 259 258 257 255 253 253 251 250 251 249 244 241 240 241 240 236 232 230 228 223 218 216 218 224 228 225 222 222 214 209 210 210 213 216 219 222 223 224 223 222 224 224 223 229 237 231 252 211 179 186 192 180 163 184 217 205 176 181 189 174 155 156 158 150 138 140 128 120 279 261 139
292 290 288 286 283 282 280 278 276 274 271 269 268 266 264 262 261 259 257 256 255 253 251 250 249 248 249 247 243 240 237 238 239 235 232 231 227 221 217 218 222 229 230 227 227 222 216 215 213 213 215 218 221 224 226 226 225 224 224 224 228 244 242 242 207 177 183 155 155 173 194 209 210 186 183 217 259 226 196 180 157 145 148 145 141 189 253 197
291 289 288 286 284 282 281 279 278 275 272 269 268 266 265 263 260 258 256 255 254 253 250 249 248 247 247 247 245 242 237 234 238 236 233 235 231 224 220 219 220 226 232 231 229 228 224 220 218 217 216 218 221 224 228 228 227 225 225 226 226 238 252 250 213 189 203 160 159 188 206 211 208 200 193 203 245 250 231 204 176 163 177 169 157 168 208 230
287 287 286 284 283 281 280 279 278 276 275 272 270 268 266 265 262 259 256 254 254 253 251 248 247 246 245 245 244 243 238 232 238 237 231 236 235 227 222 221 220 223 229 231 230 230 229 225 222 220 218 219 220 223 227 228 227 225 225 227 226 228 242 248 219 218 221 215 182 190 214 217 200 209 201 198 230 246 237 215 192 176 196 192 168 171 176 205
281 281 280 279 278 277 276 275 274 273 273 272 270 269 267 266 264 262 259 256 254 253 252 250 247 246 245 245 243 243 240 234 239 238 231 235 237 231 224 223 223 221 225 229 228 228 230 229 224 223 221 219 219 221 225 228 226 224 224 228 230 232 238 241 237 237 236 253 222 194 232 228 208 218 201 202 230 237 235 221 205 183 187 198 185 176 171 178
277 276 275 274 273 272 271 270 269 268 268 267 267 266 266 265 264 263 261 258 256 254 253 251 250 248 246 245 243 243 240 234 238 237 232 233 237 235 227 225 225 222 224 227 228 228 229 230 228 225 223 221 220 219 223 227 226 223 223 225 230 233 238 240 248 252 248 256 247 227 241 211 205 224 209 211 217 225 234 219 213 203 186 189 195 190 182 176
275 274 272 271 270 268 267 265 264 263 262 262 261 262 261 261 261 260 260 258 257 256 255 253 252 250 248 247 245 244 239 234 237 237 234 233 234 236 231 227 226 225 224 226 229 230 230 231 231 229 225 224 222 219 221 225 225 224 223 222 225 230 235 237 240 244 245 252 256 251 248 209 209 223 219 223 207 219 231 218 219 215 198 188 189 200 198 187
274 273 272 270 268 266 265 264 262 260 259 258 257 257 256 257 256 256 257 256 256 255 255 255 254 253 250 249 248 246 241 238 237 237 237 235 234 235 233 229 228 228 226 226 228 229 230 230 230 231 228 229 228 224 223 224 225 225 223 220 222 228 235 239 240 242 242 244 248 253 259 253 242 233 225 228 218 219 222 220 223 216 207 193 186 195 201 205
276 274 272 270 268 266 264 263 262 260 258 257 256 255 254 254 253 253 253 254 255 255 255 255 255 255 253 252 250 246 243 243 239 238 239 237 235 234 233 231 230 230 228 226 227 228 230 230 230 231 230 232 233 231 230 229 230 231 229 224 223 227 233 239 242 243 243 242 243 248 254 251 247 245 238 233 225 222 217 217 220 216 211 194 187 190 194 211
277 275 274 272 269 267 265 263 262 260 259 257 256 255 254 254 253 253 253 252 252 253 254 254 255 255 254 254 252 247 245 247 242 239 241 239 236 234 233 232 230 231 231 229 228 228 230 231 231 231 231 232 231 231 230 229 232 235 236 231 227 229 232 234 239 241 242 246 245 244 248 251 251 250 247 244 242 236 224 219 219 217 212 196 189 189 190 205
276 276 274 273 271 269 266 264 263 261 260 258 256 256 256 256 256 255 255 254 252 252 252 253 254 254 255 256 254 251 248 247 244 242 242 241 239 236 234 232 231 231 232 232 230 229 230 231 232 232 233 233 231 232 230 229 232 236 237 235 230 230 231 233 237 239 240 247 249 246 246 249 251 249 244 245 249 247 233 224 222 212 207 201 193 189 190 203
276 275 274 273 271 269 268 266 264 262 260 259 258 257 257 257 257 257 256 256 255 254 252 252 252 253 254 255 255 253 249 247 245 243 243 243 242 240 237 234 232 231 232 233 232 231 231 231 232 232 234 236 235 237 238 236 236 237 238 237 234 232 233 235 236 237 238 245 247 246 247 245 245 247 245 243 245 248 244 234 229 218 209 205 198 194 193 205
277 276 274 273 272 271 269 267 265 263 262 261 260 259 259 258 258 258 258 258 257 256 255 254 252 252 253 254 254 253 251 248 245 243 243 243 243 242 240 237 234 233 233 233 233 233 233 232 232 232 234 236 235 239 243 243 240 240 240 240 239 237 235 237 240 239 238 245 248 246 249 247 241 243 244 243 241 243 243 236 232 224 216 212 202 198 198 203
279 277 275 274 273 272 271 269 267 265 264 262 261 260 260 260 260 260 259 260 259 259 258 256 254 253 253 253 253 253 251 249 247 244 243 242 243 243 244 242 238 236 234 234 234 235 235 234 232 232 233 234 234 236 239 239 237 238 243 244 244 241 237 239 246 247 239 241 247 245 247 249 241 241 244 244 242 243 242 238 234 224 219 222 207 198 201 201
281 279 277 276 275 274 273 272 270 268 266 264 263 262 262 262 261 261 262 261 261 260 258 257 256 254 253 252 251 251 251 250 248 246 244 243 243 243 244 243 240 238 236 235 234 235 236 236 234 232 232 233 233 233 234 234 232 238 246 245 244 244 242 236 240 256 249 241 246 246 244 247 244 240 240 240 241 242 241 239 233 221 218 225 212 198 201 200
282 281 280 279 277 276 275 273 272 270 268 267 265 265 263 263 263 262 262 262 261 260 258 257 256 254 252 251 250 250 251 250 249 248 247 245 244 242 242 243 243 241 239 238 236 236 237 236 236 233 232 231 230 231 233 234 233 239 246 246 246 243 244 238 223 249 258 244 242 248 244 244 244 240 236 237 240 239 238 235 228 221 221 228 219 201 198 202
284 283 282 281 280 278 276 274 273 271 270 268 266 266 264 263 262 261 260 260 259 258 257 256 256 254 253 251 251 250 250 251 250 249 248 247 246 244 242 243 244 243 241 240 238 237 237 236 236 234 233 231 233 235 235 233 230 232 238 242 245 241 240 243 220 230 259 252 241 247 246 247 247 243 239 235 236 238 237 233 227 225 227 230 224 205 197 203
285 284 283 282 282 280 278 276 274 272 271 269 267 265 263 261 260 258 257 257 257 258 257 257 256 255 254 253 251 250 249 250 250 249 248 247 245 244 242 242 242 243 242 241 239 238 238 237 236 236 235 234 235 236 233 228 225 226 230 232 240 244 238 238 222 217 248 256 252 248 243 244 244 240 238 235 235 238 239 238 232 225 226 230 225 207 194 200
285 284 283 283 283 282 281 279 277 274 272 271 268 265 262 261 260 258 258 257 257 257 257 257 257 257 256 253 251 251 249 248 248 248 248 247 245 243 242 241 241 241 241 241 240 238 238 237 236 236 235 233 230 231 229 225 224 225 227 224 226 239 238 234 222 208 246 260 257 248 244 242 242 239 237 238 240 242 243 242 234 226 229 227 215 203 193 192
285 284 283 282 282 282 281 280 278 275 273 271 269 267 264 261 260 259 258 257 256 256 257 257 257 257 256 254 252 250 249 248 247 246 247 246 245 243 241 240 241 240 240 240 239 239 238 237 237 236 234 232 229 229 227 225 224 224 227 227 224 227 231 235 225 200 243 259 248 244 251 246 244 249 246 238 237 242 245 241 231 227 229 219 205 206 208 196
286 285 283 282 281 281 280 278 277 275 272 270 268 266 264 261 260 259 257 256 255 255 255 255 255 255 254 254 253 251 249 248 246 245 245 245 244 244 242 240 239 239 238 238 239 240 240 238 238 237 234 232 231 229 227 226 225 224 227 230 230 228 224 232 235 211 227 251 255 256 257 247 237 242 245 238 232 237 240 235 227 220 216 210 204 214 222 210
287 285 284 282 281 280 279 277 275 272 271 268 266 265 263 261 259 257 257 257 255 253 255 256 255 255 254 253 252 252 250 250 248 245 244 244 244 245 244 240 238 238 237 236 237 239 240 238 236 235 233 231 231 228 227 227 227 227 227 229 230 230 224 218 225 224 227 248 264 265 257 249 239 234 239 237 231 231 234 231 225 217 214 216 217 221 224 217
287 285 283 282 281 279 278 277 274 272 270 268 267 264 263 261 259 259 257 259 259 256 256 257 256 256 256 254 253 252 251 250 249 245 243 243 243 243 242 240 237 236 236 235 235 236 238 238 235 234 232 230 229 228 227 227 228 228 229 231 231 228 227 221 209 210 224 237 253 262 256 249 246 241 237 235 233 233 231 228 224 220 222 229 230 226 227 224
286 285 283 282 282 281 279 278 276 274 272 271 269 265 264 261 260 259 258 263 265 258 256 259 259 259 258 257 257 255 253 250 249 247 243 243 242 241 240 238 234 233 233 233 233 233 234 236 235 233 230 229 228 227 226 226 227 228 228 231 232 229 228 226 212 199 207 224 240 257 259 249 250 248 239 233 235 238 234 226 223 227 227 229 229 223 224 228
287 285 283 282 282 282 281 279 277 276 275 273 269 266 264 259 258 257 258 266 267 260 258 259 260 261 258 257 257 256 255 253 251 248 245 244 242 240 239 236 232 230 229 230 232 232 231 232 234 234 231 229 228 227 225 225 226 225 227 229 230 231 228 227 223 210 205 210 216 239 258 260 256 250 247 245 237 237 241 231 222 226 229 229 230 228 228 229
290 288 285 284 284 283 284 283 280 277 275 272 269 267 264 259 257 255 255 263 264 262 262 258 256 258 257 257 257 256 257 256 253 249 246 247 244 240 239 237 232 229 227 227 228 230 230 229 232 234 232 229 229 229 226 226 227 224 225 228 226 228 227 225 226 221 216 213 206 211 236 254 255 243 241 255 250 239 241 239 230 226 231 236 235 234 236 235
294 291 289 289 288 287 288 289 285 282 278 276 271 266 262 258 254 252 255 261 259 261 267 264 260 259 260 260 258 257 257 256 255 252 249 248 246 243 241 238 234 231 229 227 225 226 227 228 229 231 232 229 228 230 228 226 228 226 223 226 226 227 228 225 224 223 222 222 217 211 214 234 248 243 232 240 245 241 238 242 242 237 237 235 230 232 237 236
295 294 292 291 290 289 291 292 289 284 281 279 275 268 263 258 255 257 260 259 258 261 266 266 265 264 262 262 260 258 256 257 257 255 254 252 248 246 244 242 238 235 233 231 228 227 227 226 226 227 229 230 227 227 230 227 226 226 223 224 229 229 230 228 226 224 225 228 227 220 218 223 225 230 235 237 246 253 252 248 243 240 241 236 227 228 233 231
297 296 295 294 293 291 292 291 284 280 279 279 278 274 269 265 263 262 259 257 261 263 258 257 262 262 259 260 263 261 256 256 256 255 255 251 249 250 249 247 242 236 233 232 231 229 229 229 228 227 225 227 228 225 226 227 224 223 223 224 227 232 233 231 228 227 227 230 231 227 226 226 219 212 219 240 258 256 252 250 243 237 237 235 230 229 230 233
302 301 299 297 294 292 289 281 271 269 275 279 283 282 278 274 268 263 259 255 255 253 245 244 253 255 257 261 263 266 261 258 255 252 255 254 252 252 249 246 241 237 234 233 234 230 229 230 231 231 227 224 226 227 224 226 226 223 223 224 225 229 235 233 230 231 232 233 233 232 232 233 233 227 205 198 235 245 246 247 244 243 239 227 220 227 233 237
312 312 311 307 303 298 288 276 266 266 273 281 289 291 288 279 268 251 248 251 249 246 239 235 244 254 263 262 262 267 264 260 257 252 253 254 251 249 250 248 244 242 236 230 233 231 228 229 229 231 232 226 224 226 226 227 228 224 221 224 224 224 231 234 231 231 235 237 236 235 236 237 239 240 226 203 215 248 257 238 234 247 245 228 213 223 235 235
320 320 319 317 313 304 291 278 271 270 275 282 291 298 293 279 260 230 243 253 250 246 244 243 250 258 261 260 264 269 261 256 258 256 252 251 250 249 254 251 243 240 239 233 233 229 222 228 234 234 235 233 228 225 225 225 227 227 224 223 225 225 226 232 235 234 236 240 240 238 237 239 241 242 238 226 217 229 236 226 242 253 243 235 228 225 230 230
320 319 319 318 314 304 292 281 275 276 278 283 294 299 285 260 240 235 253 264 254 245 248 250 255 259 260 261 262 260 257 257 257 253 251 249 241 224 241 249 244 240 240 238 236 233 220 205 223 242 239 239 237 230 225 221 220 228 229 225 225 227 227 228 231 235 238 243 245 244 241 240 242 243 242 235 225 219 211 209 237 253 246 240 235 227 227 228
318 316 315 315 311 302 293 285 281 281 281 287 295 290 275 259 250 253 264 270 258 253 256 256 255 256 263 270 266 258 253 254 256 252 250 252 240 228 243 252 252 246 244 240 237 238 228 203 187 216 225 224 238 239 230 221 214 222 234 231 225 225 229 230 228 225 228 238 244 246 247 246 246 245 243 239 230 224 224 221 221 241 252 246 234 225 227 231
319 320 318 314 309 300 293 287 283 282 284 292 294 282 277 274 267 265 266 264 261 259 257 257 255 251 248 240 257 265 255 240 251 252 241 248 246 241 249 254 252 249 245 241 237 238 236 218 196 201 215 207 218 235 235 227 217 215 229 236 231 227 226 227 228 225 222 227 233 237 243 247 250 250 246 242 238 231 232 233 223 227 249 252 240 225 223 233
322 324 322 318 309 298 292 288 284 285 290 292 286 275 273 276 275 271 266 264 264 261 254 253 258 261 254 219 224 258 260 237 248 251 230 230 245 247 251 252 251 249 242 238 237 236 241 234 210 200 209 207 203 217 233 228 219 211 207 219 230 233 232 228 225 224 223 227 232 233 233 237 249 258 256 248 243 238 236 234 227 222 233 246 243 229 225 234
324 323 322 319 307 293 290 290 290 294 295 288 282 276 270 270 276 274 269 265 264 263 258 258 267 269 259 242 243 254 260 252 250 252 238 231 245 251 253 253 251 250 245 240 238 238 240 239 223 207 206 205 195 203 220 225 221 214 205 202 212 219 228 234 232 227 225 225 229 234 234 231 230 243 265 264 250 242 237 233 232 230 228 235 242 236 226 233
323 321 321 321 313 299 295 298 300 298 291 282 283 284 275 272 277 277 277 276 272 276 274 267 272 266 251 259 263 259 259 258 255 252 249 249 253 256 256 256 252 248 246 241 238 239 239 238 229 213 211 211 196 192 207 218 228 222 212 207 207 205 206 220 232 231 228 225 223 228 235 238 233 226 244 257 249 243 238 231 231 233 232 235 242 241 236 241
323 321 324 326 322 313 309 306 299 290 284 278 279 286 286 283 286 286 286 288 285 286 283 275 276 274 268 270 271 266 263 264 263 257 252 254 258 258 257 257 254 249 245 239 235 235 234 236 231 216 213 213 200 185 194 204 208 216 218 214 210 210 206 205 214 226 229 226 220 217 222 234 246 245 241 242 243 250 250 240 233 233 235 239 244 244 246 248
325 324 327 328 325 321 313 301 288 287 291 280 275 286 293 290 289 288 288 290 289 288 285 281 281 279 275 272 272 275 272 268 268 266 260 257 257 258 259 258 256 252 247 241 236 235 234 236 235 225 218 214 205 195 190 194 197 198 207 212 210 214 215 212 213 215 225 229 222 217 210 193 209 236 246 254 251 249 253 249 241 237 235 239 244 248 250 250
327 328 329 328 326 319 309 300 290 293 303 295 285 290 293 290 291 293 292 293 291 289 287 286 285 282 278 274 272 275 275 273 273 272 271 267 261 260 260 258 256 255 252 248 243 239 237 238 237 231 227 221 215 211 199 190 198 200 196 197 203 208 213 220 218 206 214 227 226 222 212 193 189 196 195 212 220 213 233 246 243 240 236 234 239 245 249 251
331 332 330 326 323 315 312 317 312 305 305 301 295 296 297 298 301 301 298 297 296 293 288 286 286 284 283 281 279 277 277 276 274 271 269 266 263 262 261 260 257 256 256 253 247 242 237 237 236 232 230 226 222 222 216 208 208 203 192 191 199 200 203 218 219 206 208 214 220 228 220 207 204 198 196 201 183 188 225 244 245 240 235 235 235 233 232 240
338 340 333 324 318 317 325 330 324 317 311 302 299 305 308 308 307 305 303 301 300 296 293 290 288 286 284 284 285 284 283 280 276 273 269 266 264 263 262 260 257 256 257 252 246 243 237 235 234 230 228 225 220 221 223 222 219 208 194 191 196 194 195 211 214 203 202 201 202 218 224 216 213 211 214 212 180 182 205 216 233 228 218 221 227 223 221 226
348 345 336 331 330 330 335 337 335 331 319 312 315 316 314 312 310 307 304 303 300 297 296 294 292 292 293 292 291 291 289 285 280 275 270 266 264 262 261 259 257 257 258 254 248 244 239 235 233 229 227 224 220 217 219 221 221 217 207 196 192 191 192 202 206 200 200 199 196 203 211 211 212 223 232 226 215 215 207 195 207 218 213 209 203 205 214 217
354 344 336 340 348 344 342 347 342 334 326 323 325 323 319 317 314 308 304 302 300 297 296 295 294 296 299 300 300 297 294 289 281 275 271 268 266 265 264 264 262 261 261 258 252 246 241 237 233 229 228 225 221 219 219 219 218 218 214 203 196 194 193 197 200 197 197 199 195 197 202 195 193 208 221 223 234 243 235 224 230 235 229 211 196 198 208 212
358 349 335 333 343 344 343 346 337 329 328 328 327 326 323 319 316 311 307 306 302 300 300 300 301 302 304 305 305 300 295 289 282 277 274 271 270 268 268 267 266 264 261 259 256 249 244 239 233 229 227 223 220 218 218 218 217 215 213 207 200 197 195 197 198 192 191 195 192 190 196 191 189 198 195 192 212 217 208 209 209 213 223 206 193 197 204 209
360 352 333 317 324 331 330 332 328 324 327 329 327 325 322 319 315 311 310 309 307 305 304 305 309 312 312 313 310 302 297 293 288 283 279 277 274 270 268 265 261 260 258 255 255 252 247 241 234 229 225 221 218 216 216 217 216 214 212 207 203 200 198 198 197 191 188 191 191 191 194 192 195 203 200 198 211 215 214 207 192 195 211 208 195 196 201 209
358 355 337 305 290 302 314 317 319 321 325 324 323 322 320 318 316 312 312 313 311 311 311 313 318 321 321 320 315 309 307 304 299 294 289 285 281 273 266 260 256 259 258 251 249 249 248 245 238 230 226 222 219 216 215 216 218 217 214 210 207 206 205 202 198 193 189 192 194 191 191 193 198 203 202 205 214 216 216 212 201 201 210 212 203 200 204 212
353 355 349 325 290 297 310 310 312 315 318 319 321 323 322 319 317 316 316 316 313 315 319 323 328 330 328 327 325 319 318 319 316 310 302 295 288 277 265 256 255 261 261 252 248 249 250 249 244 236 229 223 220 218 216 217 219 221 219 216 212 210 210 209 203 196 193 195 196 190 189 193 199 200 200 204 208 206 204 207 209 212 213 213 210 207 210 216
349 350 354 349 327 318 316 309 309 312 316 322 325 326 324 321 320 320 319 318 318 321 327 331 335 337 335 333 334 323 314 318 320 318 314 307 298 286 273 261 255 258 260 258 258 257 253 247 245 243 235 227 223 220 218 218 219 221 220 218 216 214 213 212 209 202 198 197 197 192 189 191 196 201 202 202 201 198 198 204 211 215 215 215 214 210 210 216
Height
5863 5863 5863 5862 5862 5862 5862 5862 5862 5862 5862 5862 5862 5862 5863 5863 5862 5862 5863 5863 5863 5863 5864 5864 5863 5864 5865 5865 5865 5866 5866 5867 5868 5869 5870 5870 5871 5872 5873 5873 5874 5874 5875 5876 5877 5878 5879 5880 5881 5882 5883 5884 5885 5886 5886 5887 5888 5889 5890 5891 5891 5892 5892 5893 5895 5894 5894 5895 5894 5894 5895 5897 5897 5898 5898 5899 5898 5898 5899 5899 5900 5900 5900 5900 5900 5901 5901 5901
5861 5861 5861 5860 5860 5860 5860 5860 5860 5860 5860 5860 5860 5860 5860 5860 5860 5860 5860 5861 5861 5861 5862 5862 5862 5862 5863 5864 5864 5865 5865 5866 5867 5868 5868 5869 5870 5871 5872 5872 5873 5873 5875 5875 5875 5877 5878 5878 5880 5881 5882 5883 5885 5885 5886 5887 5888 5888 5890 5891 5892 5893 5893 5894 5895 5893 5894 5895 5895 5895 5896 5897 5896 5897 5897 5898 5899 5898 5899 5900 5900 5900 5900 5900 5901 5901 5901 5901
5859 5859 5859 5858 5858 5858 5858 5858 5858 5858 5858 5858 5858 5858 5858 5858 5858 5858 5858 5858 5859 5859 5860 5860 5860 5861 5861 5862 5863 5863 5864 5865 5866 5866 5866 5868 5869 5870 5871 5872 5872 5873 5873 5874 5875 5876 5877 5877 5878 5880 5881 5882 5884 5885 5885 5886 5888 5889 5890 5890 5891 5892 5893 5894 5894 5894 5895 5895 5896 5896 5896 5896 5895 5896 5898 5897 5898 5898 5899 5899 5900 5901 5900 5901 5901 5902 5902 5902
5857 5857 5857 5857 5856 5856 5856 5856 5856 5856 5856 5856 5855 5855 5856 5856 5856 5856 5856 5856 5856 5857 5858 5858 5858 5859 5859 5860 5861 5862 5862 5864 5864 5864 5865 5866 5867 5868 5870 5871 5871 5872 5873 5874 5875 5876 5876 5877 5878 5879 5880 5881 5882 5884 5885 5886 5887 5889 5890 5890 5891 5892 5892 5894 5894 5895 5896 5895 5896 5896 5895 5896 5896 5897 5898 5898 5899 5898 5899 5900 5900 5901 5900 5900 5901 5902 5902 5902
5855 5855 5855 5855 5854 5854 5854 5854 5854 5854 5854 5854 5853 5853 5853 5854 5854 5854 5854 5854 5854 5855 5855 5856 5856 5857 5857 5858 5859 5860 5861 5863 5862 5862 5864 5864 5865 5867 5868 5869 5870 5871 5872 5873 5874 5875 5876 5877 5877 5878 5879 5880 5881 5883 5884 5885 5887 5888 5890 5890 5891 5892 5892 5893 5894 5895 5897 5895 5895 5896 5896 5898 5898 5898 5898 5899 5900 5899 5900 5900 5901 5901 5900 5901 5901 5902 5903 5903
5854 5853 5853 5853 5852 5852 5852 5852 5852 5851 5851 5851 5851 5851 5851 5851 5852 5852 5852 5852 5852 5852 5852 5853 5854 5854 5855 5856 5857 5857 5859 5861 5860 5861 5862 5862 5863 5865 5866 5868 5869 5870 5871 5872 5873 5874 5875 5875 5876 5878 5879 5879 5880 5881 5882 5883 5885 5888 5889 5889 5890 5891 5891 5893 5894 5895 5896 5895 5896 5897 5897 5899 5899 5898 5898 5900 5900 5900 5901 5901 5901 5901 5901 5901 5902 5902 5902 5903
5852 5851 5851 5850 5850 5850 5850 5850 5850 5849 5849 5849 5849 5849 5849 5849 5849 5850 5850 5850 5850 5850 5850 5851 5852 5852 5853 5853 5854 5855 5857 5859 5858 5859 5860 5860 5861 5863 5865 5866 5867 5868 5869 5870 5871 5872 5873 5874 5875 5876 5877 5878 5879 5880 5880 5881 5884 5886 5888 5889 5889 5891 5891 5892 5894 5894 5894 5894 5896 5897 5897 5898 5897 5896 5898 5899 5900 5900 5900 5900 5901 5902 5902 5902 5902 5902 5903 5903
5849 5849 5849 5848 5848 5848 5847 5847 5847 5847 5847 5847 5847 5847 5847 5847 5847 5847 5847 5848 5848 5848 5848 5849 5849 5850 5850 5851 5852 5852 5855 5857 5856 5857 5858 5859 5859 5861 5863 5864 5865 5866 5867 5868 5870 5871 5872 5873 5874 5874 5876 5877 5877 5878 5879 5880 5882 5885 5887 5887 5889 5891 5892 5893 5894 5895 5894 5894 5895 5897 5897 5896 5896 5896 5898 5900 5900 5900 5900 5900 5901 5902 5903 5902 5902 5903 5903 5903
5846 5846 5846 5845 5845 5845 5845 5845 5845 5845 5845 5845 5845 5845 5845 5845 5845 5845 5845 5845 5845 5846 5846 5846 5847 5848 5848 5849 5849 5850 5853 5853 5853 5855 5856 5857 5858 5859 5861 5862 5863 5864 5865 5867 5868 5869 5870 5872 5872 5873 5874 5874 5875 5876 5877 5878 5881 5883 5884 5886 5887 5889 5891 5892 5893 5894 5895 5894 5894 5895 5897 5898 5898 5898 5899 5900 5900 5900 5899 5900 5901 5902 5902 5902 5903 5903 5903 5904
5843 5843 5843 5842 5842 5842 5842 5842 5842 5842 5842 5842 5842 5842 5842 5842 5842 5842 5843 5843 5843 5843 5844 5844 5845 5845 5846 5847 5847 5849 5850 5850 5851 5853 5853 5854 5856 5857 5859 5860 5861 5862 5863 5865 5866 5868 5869 5870 5871 5871 5872 5873 5874 5876 5876 5878 5880 5879 5881 5884 5887 5888 5889 5891 5892 5894 5894 5894 5893 5893 5894 5897 5897 5899 5900 5900 5900 5900 5899 5900 5901 5902 5902 5902 5903 5903 5903 5904
5840 5840 5839 5839 5839 5839 5839 5839 5839 5839 5839 5839 5839 5839 5839 5839 5840 5840 5840 5840 5841 5841 5841 5842 5842 5843 5843 5844 5845 5847 5847 5848 5850 5850 5850 5852 5853 5855 5856 5858 5859 5860 5861 5862 5864 5865 5866 5867 5868 5869 5871 5872 5874 5875 5877 5878 5878 5877 5881 5884 5886 5888 5889 5890 5891 5892 5893 5893 5892 5892 5893 5894 5895 5897 5898 5899 5900 5900 5900 5901 5901 5902 5902 5902 5902 5903 5903 5904
5836 5836 5835 5835 5835 5835 5835 5835 5835 5835 5835 5836 5836 5836 5837 5837 5837 5837 5838 5838 5838 5838 5839 5839 5839 5840 5841 5841 5843 5844 5845 5846 5847 5848 5848 5849 5850 5852 5854 5855 5857 5857 5859 5860 5861 5863 5864 5865 5866 5868 5870 5870 5872 5874 5874 5875 5876 5878 5881 5884 5886 5887 5888 5890 5891 5892 5892 5891 5890 5892 5894 5893 5894 5896 5897 5898 5899 5900 5901 5901 5901 5901 5902 5902 5902 5902 5903 5903
5833 5832 5832 5831 5831 5831 5831 5831 5832 5832 5832 5832 5833 5833 5833 5833 5834 5834 5835 5835 5835 5836 5836 5836 5837 5837 5838 5839 5840 5841 5843 5844 5845 5845 5846 5847 5848 5849 5851 5853 5854 5855 5856 5857 5859 5860 5861 5863 5865 5867 5867 5868 5871 5871 5871 5873 5876 5878 5881 5883 5885 5886 5888 5890 5890 5891 5892 5891 5890 5892 5894 5894 5895 5896 5896 5897 5899 5899 5900 5901 5900 5900 5901 5902 5902 5902 5903 5903
5829 5829 5828 5827 5827 5827 5827 5827 5827 5828 5828 5829 5829 5829 5830 5830 5830 5831 5831 5831 5832 5833 5833 5834 5834 5834 5835 5836 5836 5838 5840 5841 5842 5843 5844 5844 5845 5847 5848 5850 5851 5852 5854 5855 5856 5858 5859 5861 5863 5864 5865 5867 5870 5869 5871 5875 5876 5878 5880 5882 5884 5886 5888 5889 5889 5890 5891 5891 5890 5891 5892 5894 5895 5895 5896 5898 5899 5899 5899 5899 5899 5900 5900 5901 5902 5902 5902 5903
5826 5825 5824 5823 5823 5823 5822 5823 5823 5823 5824 5825 5825 5825 5826 5826 5826 5827 5827 5828 5828 5829 5829 5830 5831 5831 5832 5833 5833 5834 5836 5837 5839 5840 5841 5842 5843 5844 5845 5847 5848 5850 5851 5852 5854 5855 5856 5858 5860 5862 5864 5866 5868 5869 5872 5874 5876 5877 5878 5880 5883 5885 5888 5888 5888 5889 5891 5890 5889 5890 5891 5892 5895 5895 5896 5897 5899 5899 5899 5900 5899 5899 5900 5901 5901 5901 5902 5903
5822 5821 5821 5820 5819 5819 5818 5818 5818 5819 5820 5820 5821 5821 5821 5822 5822 5823 5823 5824 5824 5825 5826 5826 5827 5828 5829 5829 5830 5831 5832 5834 5835 5837 5838 5839 5840 5841 5842 5844 5846 5847 5848 5849 5851 5852 5854 5856 5858 5860 5861 5863 5866 5868 5870 5871 5874 5876 5877 5880 5882 5884 5886 5888 5888 5888 5889 5888 5888 5889 5889 5890 5893 5894 5895 5896 5898 5899 5899 5899 5899 5899 5900 5901 5901 5901 5902 5903
5818 5818 5817 5816 5816 5815 5814 5814 5814 5815 5815 5816 5816 5817 5817 5817 5818 5818 5819 5819 5820 5820 5821 5821 5823 5824 5824 5826 5826 5827 5828 5830 5832 5833 5835 5836 5837 5839 5840 5840 5842 5844 5845 5846 5848 5850 5851 5853 5855 5857 5859 5861 5864 5866 5866 5868 5873 5876 5877 5879 5881 5883 5884 5886 5888 5886 5885 5887 5887 5888 5889 5889 5891 5893 5894 5895 5896 5897 5897 5897 5898 5898 5900 5901 5901 5901 5902 5902
5814 5814 5813 5812 5812 5811 5811 5810 5810 5810 5811 5811 5812 5812 5812 5813 5813 5814 5814 5814 5815 5816 5817 5817 5818 5819 5820 5821 5822 5823 5824 5826 5828 5830 5831 5833 5834 5835 5837 5837 5839 5841 5842 5843 5845 5847 5848 5850 5852 5854 5856 5858 5861 5862 5864 5870 5875 5876 5875 5877 5879 5881 5882 5884 5888 5886 5883 5884 5886 5886 5887 5888 5889 5891 5893 5894 5895 5896 5896 5897 5898 5898 5900 5901 5901 5901 5901 5902
5810 5809 5809 5808 5808 5807 5807 5806 5806 5806 5806 5807 5807 5807 5808 5808 5809 5809 5809 5810 5811 5811 5812 5813 5813 5814 5815 5817 5818 5819 5820 5821 5823 5825 5827 5829 5831 5832 5833 5834 5835 5837 5839 5840 5842 5844 5845 5847 5848 5850 5853 5857 5860 5862 5866 5871 5873 5872 5872 5874 5876 5878 5881 5883 5886 5887 5883 5882 5884 5884 5886 5887 5887 5889 5890 5892 5893 5893 5894 5896 5898 5898 5899 5901 5901 5900 5900 5901
5805 5805 5805 5804 5803 5803 5802 5802 5802 5802 5802 5802 5802 5803 5803 5803 5804 5805 5805 5806 5806 5806 5807 5808 5809 5809 5811 5812 5813 5814 5816 5817 5819 5821 5823 5825 5827 5828 5829 5831 5832 5833 5835 5837 5839 5840 5842 5843 5845 5848 5853 5857 5860 5861 5864 5867 5868 5868 5869 5871 5874 5876 5879 5881 5884 5888 5884 5881 5882 5882 5884 5885 5885 5888 5889 5889 5891 5892 5893 5895 5897 5898 5899 5900 5901 5900 5899 5900
5801 5800 5800 5800 5799 5798 5798 5798 5797 5798 5797 5797 5797 5798 5798 5799 5799 5800 5801 5801 5801 5802 5802 5803 5804 5805 5806 5807 5808 5809 5811 5812 5814 5816 5818 5820 5822 5823 5825 5827 5828 5830 5832 5834 5835 5836 5838 5839 5842 5847 5851 5854 5855 5857 5859 5862 5863 5864 5864 5866 5871 5873 5876 5879 5881 5887 5884 5880 5881 5881 5881 5883 5883 5886 5888 5887 5889 5890 5891 5893 5894 5896 5898 5898 5899 5900 5898 5898
5796 5796 5795 5795 5795 5794 5793 5793 5793 5793 5793 5793 5793 5793 5794 5794 5794 5795 5796 5796 5796 5797 5797 5798 5799 5800 5801 5802 5804 5805 5806 5807 5809 5812 5813 5816 5817 5818 5821 5823 5824 5826 5828 5829 5831 5832 5834 5836 5840 5845 5848 5850 5851 5853 5856 5858 5859 5861 5861 5863 5866 5869 5874 5877 5879 5885 5885 5879 5880 5880 5879 5881 5882 5882 5884 5885 5886 5888 5889 5890 5891 5894 5896 5896 5898 5901 5900 5898
5792 5791 5791 5790 5790 5790 5789 5789 5789 5789 5789 5789 5788 5788 5789 5789 5789 5790 5791 5791 5792 5792 5793 5793 5794 5795 5797 5798 5799 5800 5801 5802 5804 5807 5809 5811 5811 5813 5817 5819 5820 5822 5823 5825 5827 5828 5830 5834 5838 5842 5844 5846 5848 5851 5853 5855 5856 5857 5859 5860 5863 5867 5872 5876 5878 5882 5884 5879 5880 5880 5878 5879 5880 5880 5881 5884 5885 5886 5888 5889 5890 5892 5894 5895 5896 5899 5900 5899
5788 5787 5786 5786 5786 5785 5785 5784 5785 5784 5784 5784 5784 5784 5784 5785 5785 5785 5786 5786 5786 5788 5788 5789 5789 5791 5792 5793 5794 5795 5796 5797 5798 5802 5804 5804 5806 5809 5812 5814 5815 5817 5818 5821 5823 5824 5827 5832 5835 5837 5839 5842 5844 5847 5849 5851 5853 5854 5857 5858 5861 5866 5869 5873 5877 5880 5882 5880 5878 5878 5877 5876 5877 5879 5881 5883 5884 5885 5887 5888 5889 5891 5894 5895 5896 5898 5899 5899
5784 5783 5782 5782 5781 5781 5781 5780 5780 5780 5780 5780 5780 5780 5780 5780 5781 5781 5782 5782 5781 5783 5785 5784 5785 5787 5787 5789 5790 5790 5792 5792 5793 5796 5798 5799 5801 5804 5806 5809 5811 5812 5814 5816 5818 5820 5824 5827 5830 5832 5834 5837 5840 5843 5846 5848 5850 5852 5855 5856 5859 5863 5866 5869 5874 5876 5879 5879 5877 5875 5876 5875 5873 5875 5878 5881 5881 5883 5885 5887 5888 5890 5893 5895 5896 5897 5899 5898
5780 5780 5779 5778 5778 5777 5777 5776 5776 5776 5776 5776 5775 5776 5776 5776 5777 5777 5778 5778 5777 5779 5781 5781 5781 5783 5783 5785 5785 5786 5787 5788 5789 5791 5794 5795 5796 5798 5800 5803 5806 5807 5809 5811 5812 5815 5819 5823 5825 5827 5829 5833 5836 5839 5842 5844 5847 5849 5852 5854 5856 5860 5862 5865 5869 5871 5873 5877 5877 5874 5875 5877 5875 5873 5875 5878 5880 5881 5883 5885 5886 5888 5891 5893 5894 5895 5897 5898
5777 5777 5776 5775 5774 5773 5773 5773 5773 5772 5772 5772 5772 5772 5772 5773 5774 5773 5775 5775 5773 5774 5777 5778 5778 5778 5779 5780 5781 5782 5782 5784 5785 5786 5789 5790 5791 5794 5795 5797 5800 5802 5803 5805 5807 5811 5815 5818 5820 5822 5826 5829 5831 5834 5838 5840 5842 5845 5848 5850 5853 5856 5858 5861 5864 5866 5867 5870 5874 5873 5873 5875 5875 5875 5875 5875 5877 5878 5879 5881 5884 5886 5888 5891 5893 5894 5897 5898
5774 5773 5772 5772 5771 5770 5770 5769 5769 5769 5769 5769 5768 5769 5769 5770 5770 5771 5772 5772 5770 5771 5773 5774 5775 5774 5775 5776 5777 5778 5778 5780 5780 5782 5785 5786 5786 5789 5790 5791 5794 5795 5797 5799 5802 5806 5809 5814 5816 5818 5821 5825 5828 5831 5834 5837 5839 5843 5846 5847 5849 5851 5852 5855 5858 5861 5863 5864 5866 5870 5873 5872 5872 5875 5876 5873 5872 5874 5876 5878 5880 5884 5887 5889 5892 5894 5896 5897
5771 5770 5769 5768 5768 5767 5767 5766 5766 5766 5765 5765 5766 5766 5766 5767 5767 5768 5769 5769 5767 5768 5769 5770 5771 5771 5772 5772 5773 5774 5775 5776 5776 5778 5781 5781 5782 5785 5785 5786 5789 5790 5791 5793 5796 5800 5804 5808 5811 5812 5815 5820 5825 5827 5830 5833 5836 5840 5843 5844 5844 5846 5847 5850 5853 5857 5859 5858 5860 5865 5870 5871 5871 5874 5876 5874 5872 5871 5875 5877 5878 5881 5885 5888 5892 5894 5895 5896
5768 5767 5766 5765 5765 5764 5764 5763 5762 5763 5763 5763 5763 5763 5764 5764 5764 5766 5766 5765 5765 5767 5767 5766 5767 5769 5769 5769 5770 5771 5771 5772 5773 5775 5777 5778 5779 5780 5781 5783 5784 5785 5787 5788 5792 5795 5798 5801 5803 5806 5810 5815 5820 5822 5826 5830 5832 5835 5838 5840 5841 5842 5844 5845 5849 5853 5853 5851 5854 5860 5865 5868 5869 5873 5875 5876 5875 5873 5874 5876 5876 5879 5881 5885 5891 5894 5895 5895
5765 5764 5763 5762 5762 5761 5761 5760 5760 5760 5760 5761 5761 5761 5761 5761 5762 5763 5763 5762 5763 5764 5764 5764 5764 5766 5767 5766 5767 5768 5769 5769 5770 5772 5773 5774 5776 5777 5778 5779 5778 5780 5783 5785 5789 5793 5794 5796 5799 5801 5805 5810 5813 5816 5820 5823 5825 5829 5834 5837 5839 5839 5839 5841 5845 5848 5847 5846 5851 5858 5861 5862 5863 5868 5873 5877 5877 5876 5874 5874 5874 5876 5879 5883 5888 5890 5892 5894
5763 5762 5761 5760 5759 5759 5759 5758 5758 5758 5758 5758 5758 5758 5758 5759 5760 5760 5760 5760 5760 5760 5761 5762 5763 5763 5764 5764 5764 5765 5766 5766 5767 5769 5769 5771 5773 5774 5774 5772 5772 5776 5781 5783 5784 5787 5790 5793 5796 5798 5801 5805 5808 5811 5815 5817 5821 5827 5831 5833 5835 5835 5835 5838 5841 5843 5843 5845 5850 5856 5859 5858 5858 5863 5870 5875 5878 5878 5876 5875 5874 5874 5875 5881 5886 5888 5889 5891
5761 5760 5759 5757 5757 5756 5756 5756 5756 5756 5756 5756 5756 5756 5756 5756 5757 5757 5757 5756 5757 5758 5759 5760 5760 5761 5762 5761 5761 5763 5764 5763 5764 5766 5766 5768 5769 5771 5769 5767 5770 5775 5777 5778 5779 5782 5786 5789 5792 5794 5797 5799 5802 5806 5811 5815 5819 5823 5826 5828 5829 5831 5832 5834 5838 5840 5842 5844 5849 5854 5856 5853 5854 5860 5867 5872 5875 5877 5877 5876 5875 5874 5873 5876 5883 5886 5886 5888
5759 5758 5756 5755 5754 5753 5753 5753 5754 5754 5754 5754 5754 5754 5754 5754 5755 5754 5753 5753 5754 5756 5757 5757 5758 5759 5759 5758 5758 5760 5761 5760 5761 5763 5764 5765 5767 5769 5766 5763 5768 5771 5772 5774 5776 5779 5783 5787 5790 5792 5794 5796 5797 5801 5807 5813 5817 5818 5821 5823 5825 5827 5830 5833 5836 5839 5841 5843 5847 5850 5850 5849 5851 5856 5863 5869 5872 5874 5876 5877 5877 5875 5873 5873 5878 5881 5883 5886
5757 5755 5754 5753 5752 5751 5751 5751 5751 5751 5752 5752 5752 5752 5752 5752 5751 5750 5750 5751 5752 5753 5753 5755 5755 5755 5756 5756 5756 5757 5757 5757 5758 5760 5761 5762 5764 5765 5760 5759 5766 5768 5768 5771 5773 5775 5778 5784 5789 5789 5790 5793 5794 5797 5802 5808 5812 5814 5816 5818 5821 5825 5828 5831 5835 5838 5842 5843 5844 5845 5844 5846 5851 5853 5858 5865 5869 5870 5873 5877 5878 5875 5872 5872 5874 5878 5880 5882
5756 5754 5752 5751 5750 5749 5749 5749 5749 5749 5749 5750 5750 5749 5748 5749 5748 5748 5748 5749 5750 5751 5751 5752 5752 5753 5753 5753 5752 5752 5754 5754 5755 5757 5759 5759 5761 5760 5755 5758 5764 5765 5766 5768 5770 5771 5773 5777 5781 5780 5782 5788 5791 5793 5797 5803 5809 5812 5812 5814 5819 5824 5826 5829 5832 5835 5838 5839 5840 5842 5843 5845 5847 5849 5853 5859 5865 5868 5869 5872 5877 5876 5871 5869 5872 5877 5878 5879
5753 5752 5750 5749 5748 5748 5747 5747 5747 5747 5747 5747 5747 5746 5746 5746 5746 5746 5747 5747 5747 5748 5749 5748 5749 5749 5751 5752 5751 5749 5749 5751 5752 5754 5756 5756 5756 5755 5753 5755 5759 5761 5763 5765 5767 5767 5768 5771 5775 5777 5779 5784 5789 5790 5791 5796 5804 5809 5810 5813 5818 5821 5822 5825 5828 5831 5834 5835 5837 5840 5843 5844 5844 5844 5849 5853 5858 5864 5866 5870 5876 5876 5872 5867 5869 5875 5877 5878
5751 5750 5748 5747 5746 5746 5745 5745 5745 5745 5745 5744 5744 5744 5743 5743 5744 5744 5745 5745 5745 5746 5746 5746 5745 5746 5748 5751 5750 5745 5746 5749 5750 5750 5753 5753 5751 5751 5751 5752 5754 5757 5759 5762 5764 5763 5764 5769 5774 5775 5776 5780 5784 5787 5789 5791 5796 5803 5808 5812 5815 5817 5818 5820 5822 5826 5830 5832 5835 5838 5841 5844 5844 5843 5845 5848 5853 5859 5863 5867 5871 5873 5871 5867 5867 5873 5876 5876
5749 5748 5747 5745 5745 5744 5743 5743 5743 5743 5743 5742 5741 5741 5741 5741 5741 5742 5742 5743 5743 5743 5743 5743 5743 5744 5746 5746 5745 5743 5744 5746 5747 5747 5749 5749 5747 5747 5747 5748 5751 5754 5756 5758 5760 5760 5761 5764 5768 5772 5773 5773 5776 5782 5786 5788 5791 5797 5803 5805 5807 5810 5815 5817 5819 5822 5826 5830 5833 5836 5839 5841 5844 5846 5845 5845 5849 5853 5857 5862 5866 5868 5869 5867 5866 5870 5875 5876
5747 5746 5745 5744 5743 5742 5742 5741 5741 5741 5740 5740 5740 5740 5740 5740 5739 5740 5740 5740 5740 5740 5740 5740 5740 5741 5742 5741 5741 5741 5742 5741 5743 5745 5745 5744 5744 5743 5742 5744 5748 5750 5752 5755 5756 5757 5757 5757 5762 5769 5770 5769 5772 5777 5783 5789 5793 5796 5798 5800 5801 5804 5809 5813 5815 5819 5823 5827 5831 5834 5837 5839 5842 5846 5848 5846 5845 5847 5852 5858 5861 5863 5866 5865 5864 5868 5873 5876
5745 5744 5743 5742 5741 5740 5740 5739 5739 5739 5738 5738 5738 5738 5738 5738 5737 5737 5737 5737 5737 5737 5737 5737 5738 5738 5738 5738 5737 5738 5739 5738 5739 5741 5742 5741 5739 5738 5738 5739 5743 5745 5747 5751 5751 5749 5749 5751 5756 5762 5764 5766 5770 5773 5777 5782 5786 5791 5795 5799 5801 5802 5806 5808 5811 5816 5819 5822 5827 5831 5836 5840 5842 5844 5846 5845 5843 5843 5847 5852 5856 5859 5862 5863 5863 5865 5870 5872
5743 5742 5741 5740 5739 5739 5738 5738 5737 5737 5737 5737 5736 5736 5736 5736 5736 5736 5735 5735 5735 5735 5735 5735 5735 5735 5735 5735 5734 5734 5735 5735 5734 5735 5737 5737 5735 5733 5734 5734 5736 5739 5741 5744 5743 5742 5746 5749 5752 5758 5760 5761 5762 5764 5767 5771 5775 5780 5785 5792 5798 5802 5805 5807 5809 5814 5817 5819 5823 5828 5832 5838 5841 5841 5843 5843 5842 5842 5843 5846 5851 5855 5858 5861 5861 5863 5866 5867
5742 5740 5739 5739 5738 5737 5737 5736 5736 5736 5736 5736 5735 5735 5735 5735 5735 5734 5734 5734 5733 5733 5733 5732 5733 5733 5732 5732 5731 5731 5731 5730 5731 5731 5731 5731 5729 5728 5729 5728 5729 5733 5734 5735 5736 5740 5746 5747 5748 5752 5755 5757 5760 5762 5765 5767 5768 5768 5771 5779 5788 5794 5800 5805 5807 5811 5815 5817 5820 5823 5827 5833 5837 5839 5841 5841 5841 5843 5843 5842 5845 5849 5854 5858 5859 5862 5865 5863
5740 5739 5738 5738 5737 5737 5736 5735 5735 5735 5735 5735 5734 5734 5734 5733 5733 5732 5732 5732 5731 5732 5731 5730 5730 5730 5729 5728 5727 5727 5727 5726 5726 5726 5725 5724 5721 5721 5722 5721 5724 5726 5725 5726 5731 5738 5741 5740 5741 5745 5748 5752 5758 5762 5765 5766 5765 5766 5770 5775 5780 5786 5794 5800 5803 5805 5808 5813 5818 5821 5824 5829 5834 5836 5837 5837 5839 5843 5844 5842 5842 5845 5850 5854 5857 5861 5863 5861
5739 5738 5738 5737 5736 5736 5736 5735 5735 5734 5734 5734 5733 5733 5732 5731 5731 5731 5730 5730 5729 5729 5729 5728 5728 5727 5726 5725 5723 5723 5723 5721 5720 5720 5718 5716 5714 5713 5714 5714 5716 5716 5714 5718 5725 5730 5731 5731 5732 5736 5740 5744 5751 5755 5758 5759 5759 5761 5765 5767 5772 5780 5786 5791 5796 5798 5800 5806 5813 5817 5821 5826 5831 5832 5832 5833 5837 5841 5842 5842 5843 5844 5847 5851 5855 5858 5861 5861
5738 5737 5737 5737 5736 5735 5735 5735 5734 5734 5733 5733 5732 5731 5731 5730 5729 5729 5728 5728 5727 5726 5726 5725 5724 5722 5721 5720 5719 5717 5716 5715 5714 5712 5710 5709 5707 5706 5706 5707 5708 5706 5706 5710 5715 5718 5719 5721 5725 5729 5731 5736 5743 5746 5746 5748 5751 5756 5761 5764 5767 5771 5773 5776 5783 5790 5795 5800 5805 5811 5817 5822 5828 5829 5828 5830 5832 5834 5836 5838 5840 5841 5843 5848 5852 5855 5857 5859
5738 5737 5736 5736 5735 5735 5735 5734 5734 5733 5733 5732 5731 5730 5729 5728 5727 5727 5726 5726 5725 5724 5723 5722 5721 5719 5717 5715 5713 5711 5710 5708 5707 5705 5704 5703 5702 5701 5701 5701 5701 5700 5701 5703 5705 5707 5708 5712 5717 5722 5725 5731 5739 5740 5740 5742 5746 5750 5758 5762 5763 5762 5762 5763 5767 5775 5784 5791 5796 5804 5812 5818 5821 5821 5822 5824 5826 5828 5831 5834 5837 5839 5841 5845 5849 5851 5852 5856
5738 5737 5736 5736 5735 5734 5734 5734 5733 5733 5732 5731 5730 5729 5728 5727 5726 5725 5724 5723 5722 5721 5719 5718 5717 5716 5713 5711 5709 5706 5705 5703 5702 5701 5699 5699 5698 5697 5697 5697 5696 5696 5698 5698 5698 5699 5700 5703 5709 5713 5717 5723 5730 5732 5734 5737 5739 5743 5749 5752 5754 5756 5758 5760 5764 5770 5776 5781 5789 5799 5807 5812 5814 5813 5815 5819 5819 5821 5825 5830 5833 5836 5836 5839 5844 5846 5848 5850
5738 5737 5736 5735 5734 5734 5733 5733 5733 5732 5731 5730 5729 5728 5726 5725 5724 5723 5721 5720 5719 5718 5716 5715 5713 5711 5709 5706 5704 5703 5701 5700 5699 5697 5696 5695 5694 5693 5693 5693 5692 5693 5694 5693 5693 5694 5694 5696 5700 5704 5708 5714 5719 5723 5727 5729 5730 5734 5738 5742 5747 5751 5752 5755 5761 5767 5772 5778 5785 5792 5798 5805 5807 5807 5810 5813 5812 5815 5820 5823 5824 5825 5826 5831 5836 5839 5840 5842
5738 5736 5735 5734 5734 5733 5733 5732 5731 5731 5730 5729 5728 5726 5725 5723 5722 5720 5719 5718 5716 5714 5713 5711 5709 5707 5705 5702 5701 5700 5699 5698 5696 5694 5693 5692 5691 5690 5689 5689 5690 5689 5689 5690 5690 5690 5690 5691 5694 5696 5700 5704 5710 5715 5719 5721 5723 5727 5732 5738 5745 5749 5752 5755 5760 5767 5771 5775 5779 5784 5790 5798 5800 5800 5804 5808 5809 5812 5814 5814 5815 5817 5820 5825 5829 5832 5833 5835
5737 5736 5735 5733 5733 5732 5732 5731 5730 5729 5728 5727 5726 5724 5723 5721 5720 5718 5717 5715 5713 5711 5710 5708 5705 5703 5701 5699 5698 5698 5697 5696 5694 5693 5691 5689 5688 5687 5686 5686 5686 5686 5686 5687 5687 5687 5688 5689 5690 5691 5693 5697 5703 5708 5713 5716 5719 5724 5730 5737 5743 5747 5751 5755 5760 5765 5768 5771 5777 5781 5784 5790 5793 5795 5800 5803 5805 5806 5805 5806 5811 5814 5817 5820 5823 5827 5829 5831
5737 5735 5734 5733 5732 5731 5730 5729 5728 5727 5726 5725 5724 5722 5721 5719 5718 5717 5715 5713 5711 5709 5707 5705 5703 5700 5698 5697 5696 5696 5695 5694 5693 5691 5689 5686 5685 5684 5683 5683 5683 5683 5684 5684 5684 5685 5685 5686 5687 5687 5688 5691 5696 5701 5706 5711 5714 5718 5725 5734 5741 5744 5748 5752 5756 5761 5763 5767 5772 5775 5779 5786 5790 5791 5793 5795 5796 5797 5800 5804 5808 5811 5813 5816 5818 5822 5824 5827